Regional Weather Roundup
Issued by NWS

Home | Current Version | Previous Version | Graphics & Text | Print | Product List | Glossary On
Versions: 1 2 3 4 5 6 7 8 9 10 11 12 13 14 15 16 17 18 19 20 21 22 23 24 25 26 27
000
ASUS45 KBOU 240207
RWRCO

WEATHER ROUNDUP FOR COLORADO
NATIONAL WEATHER SERVICE DENVER/BOULDER CO
800 PM MDT SAT JUL 23 2016

NOTE: "FAIR" INDICATES FEW OR NO CLOUDS BELOW 12000 FEET WITH NO
SIGNIFICANT WEATHER AND/OR OBSTRUCTIONS TO VISIBILITY.

COZ001>005-013-030-031-240300-
...NORTHWEST COLORADO...

CITY           SKY/WX    TMP DP  RH WIND       PRES   REMARKS
CRAIG          FAIR      80  39  23 SW13      30.13R
HAYDEN         FAIR      75  41  29 N6        30.17R
MEEKER         FAIR      81  36  19 S15G26    30.18S
MOUNT WERNER   NOT AVBL
STEAMBOAT SPGS FAIR      75  41  29 E5        30.20S
WALDEN         FAIR      70  37  30 S13       30.33S
$$

COZ006>008-011-240300-
...WEST CENTRAL VALLEYS...

CITY           SKY/WX    TMP DP  RH WIND       PRES   REMARKS
GRAND JUNCTION FAIR      91  43  18 E5        29.97F
MONTROSE       FAIR      86  48  26 SW5       30.10S
EAGLE          FAIR      84  37  18 SE6       30.20F
RIFLE          FAIR      86  38  18 NW12G23   30.08R
DELTA          FAIR      93  39  14 CALM      30.03S
NUCLA          FAIR      84  32  15 SE6       30.14F
$$

COZ017>023-064>068-240300-
...SOUTHWEST COLORADO...

CITY           SKY/WX    TMP DP  RH WIND       PRES   REMARKS
DURANGO        FAIR      77  44  30 NE5       30.19F
CORTEZ         FAIR      85  42  22 E7        30.10F
PAGOSA SPRINGS FAIR      76  37  23 CALM      30.29S
TELLURIDE      FAIR      71  40  32 CALM      30.42F
WOLF CREEK PAS FAIR      55  34  44 N12       30.69S
$$

COZ009-010-012-014-032>034-037-058>063-240300-
...CENTRAL COLORADO...

CITY           SKY/WX    TMP DP  RH WIND       PRES   REMARKS
ASPEN          FAIR      72  48  42 SW3       30.28S
BUENA VISTA    MOCLDY    76  35  22 E5        30.32R
COPPER MTN     FAIR      59  32  36 NW13      30.68S
BERTHOUD PASS  FAIR      52  36  54 NW20G29   30.70R
COTTONWOOD PAS MOCLDY    70  32  24 CALM      30.49R
GUNNISON       FAIR      75  41  29 NW5       30.30S
KREMMLING      FAIR      70  46  43 E5        30.29S
LEADVILLE      FAIR      65  32  29 N14       30.48R
MONARCH PASS   MOCLDY    57  36  44 MISG      30.76S
SALIDA         MOCLDY    78  37  23 W20G30    30.36R
SUNLIGHT       FAIR      66  34  30 CALM      30.58F
WILKERSON PASS FAIR      55  37  50 NE8       30.64R
$$

COZ069>075-240300-
...SAN LUIS VALLEY/SANGRE DE CRISTO MOUNTAINS...

CITY           SKY/WX    TMP DP  RH WIND       PRES   REMARKS
ALAMOSA        FAIR      73  43  33 N8        30.26R
LA VETA PASS   FAIR      63  37  39 NE3       30.51F
SAGUACHE       FAIR      77  37  24 NW14G21   30.29R
$$

COZ035-036-038>040-240300-
...NORTHERN COLORADO FRONT RANGE...

CITY           SKY/WX    TMP DP  RH WIND       PRES   REMARKS
DENVER INTL AP LGT RAIN  73  53  49 S18G28    30.14R
DMNS CITY PARK   N/A     78  48  35 SE6       30.11F
AURORA         MOCLDY    78  48  35 NW8       30.19R
FRONT RANGE AP LGT RAIN  81  46  30 N12G18    30.18R
ERIE MUNI ARPT FAIR      86  37  17 S13G21    30.06F
BOULDER MUN AP FAIR      84  39  20 S12G20    30.06F
CENTENNIAL     MOCLDY    80  43  26 N17G24    30.19R
BROOMFIELD     MOCLDY    79  46  31 VRB17G28  30.12R
LONGMONT       FAIR      87  39  18 SW10      30.06R
$$

COZ041-046-047-076>085-087-088-240300-
...PIKES PEAK/PALMER DIVIDE AND SOUTHERN FOOTHILLS...

CITY           SKY/WX    TMP DP  RH WIND       PRES   REMARKS
COLO. SPRINGS  MOCLDY    74  50  42 S5        30.19F
A. F. ACADEMY  FAIR      74  46  36 S14       30.21S
SCHRIEVER AFB  NOT AVBL
ELLICOTT       MOCLDY   N/A N/A N/A SE10      30.19F THUNDER
FALCON         FAIR      72  46  38 S5        30.25F
FORT CARSON    FAIR      76  54  45 N7        30.14F
LIMON          TSTM      66  58  75 NW24G41   30.16R
MONUMENT HILL  MOCLDY    68  46  45 E3        30.29R
TRINIDAD       NOT AVBL
$$

COZ042>045-048>051-090-091-240300-
...NORTHEAST COLORADO...

CITY           SKY/WX    TMP DP  RH WIND       PRES   REMARKS
GREELEY ARPT   FAIR      81  52  36 SE7       30.05R
AKRON          FAIR      79  50  36 NE13      30.03S
BURLINGTON     FAIR      83  49  30 E7        29.97S
WRAY           FAIR      86  59  39 N8        29.97R
STERLING       FAIR      81  54  39 E8        29.97S
HOLYOKE        FAIR      84  48  28 W18G26    29.98F
FORT MORGAN    FAIR      80  46  30 SE10G23   30.08R
$$

COZ086-089-092>099-240300-
...SOUTHEAST COLORADO...

CITY           SKY/WX    TMP DP  RH WIND       PRES   REMARKS
PUEBLO         FAIR      86  49  27 NE29G35   30.02F
LA JUNTA       FAIR      91  57  31 SE12      29.96R
LAMAR          FAIR      88  61  40 E14       29.89R
SPRINGFIELD      N/A     83  54  36 SW10      29.95S
$$




USA.gov is the U.S. government's official web portal to all federal, state and local government web resources and services.